CMP159 MPTO-SEQM

Flight info

Callsign CMP159
Flight time 1h 33m
Altitude 39000
Route TBG UM674 QIT
Aircraft B737/M-SDE3FGHIRWY/S

Departure

Time 2026-04-27 18:58
Airport Tocumen International Airport (MPTO)

Arrival

Time 2026-04-27 20:32
Airport Mariscal Sucre International Airport (SEQM)
Time Latitude Longitude Altitude Speed Heading
2026-04-27 18:07 9.07104 -79.38595 31 ft 0 kts 121°
2026-04-27 18:45 9.07106 -79.38598 31 ft 3 kts 120°
2026-04-27 18:45 9.07116 -79.38622 31 ft 4 kts 92°
2026-04-27 18:45 9.07110 -79.38644 31 ft 4 kts 34°
2026-04-27 18:46 9.07106 -79.38646 31 ft 1 kts 27°
2026-04-27 18:50 9.07107 -79.38646 31 ft 1 kts 27°
2026-04-27 18:51 9.07119 -79.38640 31 ft 3 kts 28°
2026-04-27 18:51 9.07136 -79.38630 32 ft 3 kts 29°
2026-04-27 18:51 9.07155 -79.38620 32 ft 3 kts 27°
2026-04-27 18:51 9.07179 -79.38607 32 ft 5 kts 26°
2026-04-27 18:52 9.07221 -79.38586 33 ft 9 kts 26°
2026-04-27 18:52 9.07291 -79.38553 33 ft 13 kts 26°
2026-04-27 18:52 9.07379 -79.38502 34 ft 16 kts 31°
2026-04-27 18:53 9.07568 -79.38385 34 ft 15 kts 31°
2026-04-27 18:53 9.07657 -79.38330 32 ft 15 kts 31°
2026-04-27 18:53 9.07745 -79.38278 33 ft 14 kts 30°
2026-04-27 18:53 9.07827 -79.38227 33 ft 14 kts 31°
2026-04-27 18:54 9.07910 -79.38178 33 ft 14 kts 30°
2026-04-27 18:54 9.08006 -79.38122 33 ft 18 kts 30°
2026-04-27 18:54 9.08117 -79.38055 32 ft 19 kts 32°
2026-04-27 18:54 9.08218 -79.37978 33 ft 18 kts 46°
2026-04-27 18:55 9.08302 -79.37889 30 ft 17 kts 45°
2026-04-27 18:55 9.08385 -79.37804 30 ft 17 kts 45°
2026-04-27 18:55 9.08465 -79.37721 30 ft 16 kts 46°
2026-04-27 18:55 9.08551 -79.37654 29 ft 15 kts 34°
2026-04-27 18:56 9.08641 -79.37600 30 ft 15 kts 31°
2026-04-27 18:56 9.08713 -79.37573 30 ft 10 kts 340°
2026-04-27 18:56 9.08752 -79.37630 30 ft 10 kts 297°
2026-04-27 18:56 9.08787 -79.37690 36 ft 11 kts 301°
2026-04-27 18:57 9.08822 -79.37754 42 ft 10 kts 289°
2026-04-27 18:57 9.08784 -79.37829 46 ft 18 kts 211°
2026-04-27 18:57 9.08667 -79.37899 47 ft 28 kts 211°
2026-04-27 18:57 9.08276 -79.38132 45 ft 102 kts 211°
2026-04-27 18:58 9.07484 -79.38593 138 ft 149 kts 207°
2026-04-27 18:58 9.06900 -79.38939 617 ft 147 kts 208°
2026-04-27 18:58 9.05686 -79.39715 1497 ft 158 kts 210°
2026-04-27 18:58 9.04698 -79.40379 1884 ft 187 kts 211°
2026-04-27 18:59 9.03492 -79.41127 2169 ft 218 kts 210°
2026-04-27 18:59 9.02120 -79.41953 2413 ft 240 kts 209°
2026-04-27 18:59 9.00647 -79.42830 2889 ft 249 kts 210°
2026-04-27 18:59 8.99110 -79.43729 3313 ft 264 kts 210°
2026-04-27 19:00 8.97491 -79.44660 3845 ft 276 kts 210°
2026-04-27 19:00 8.95811 -79.45620 4768 ft 277 kts 209°
2026-04-27 19:00 8.94123 -79.46584 5651 ft 281 kts 209°
2026-04-27 19:00 8.92406 -79.47565 6510 ft 286 kts 209°
2026-04-27 19:01 8.90663 -79.48562 7415 ft 289 kts 209°
2026-04-27 19:01 8.88793 -79.49323 8304 ft 293 kts 189°
2026-04-27 19:01 8.86752 -79.49367 9242 ft 295 kts 176°
2026-04-27 19:01 8.84684 -79.49239 10143 ft 300 kts 176°
2026-04-27 19:02 8.82546 -79.49091 10679 ft 320 kts 175°
2026-04-27 19:02 8.80236 -79.48925 11144 ft 338 kts 175°
2026-04-27 19:02 8.77869 -79.48749 11990 ft 343 kts 175°
2026-04-27 19:02 8.75487 -79.48567 12931 ft 345 kts 175°
2026-04-27 19:03 8.73078 -79.48380 13767 ft 349 kts 175°
2026-04-27 19:03 8.70633 -79.48192 14578 ft 354 kts 175°
2026-04-27 19:03 8.68157 -79.48002 15386 ft 359 kts 175°
2026-04-27 19:03 8.66504 -79.47877 15923 ft 361 kts 175°
2026-04-27 19:04 8.63134 -79.47621 17012 ft 366 kts 175°
2026-04-27 19:04 8.60571 -79.47424 17780 ft 370 kts 175°
2026-04-27 19:04 8.58026 -79.47224 18499 ft 374 kts 175°
2026-04-27 19:04 8.55417 -79.47015 19196 ft 378 kts 175°
2026-04-27 19:05 8.52772 -79.46801 19885 ft 383 kts 175°
2026-04-27 19:05 8.50109 -79.46584 20573 ft 385 kts 175°
2026-04-27 19:05 8.47421 -79.46364 21200 ft 390 kts 175°
2026-04-27 19:05 8.44700 -79.46141 21770 ft 395 kts 175°
2026-04-27 19:06 8.41951 -79.45915 22367 ft 398 kts 175°
2026-04-27 19:06 8.39175 -79.45688 22953 ft 401 kts 175°
2026-04-27 19:06 8.36381 -79.45459 23520 ft 404 kts 175°
2026-04-27 19:06 8.33565 -79.45228 24023 ft 408 kts 175°
2026-04-27 19:07 8.30719 -79.44994 24496 ft 412 kts 175°
2026-04-27 19:07 8.27850 -79.44760 25015 ft 413 kts 175°
2026-04-27 19:07 8.25947 -79.44605 25376 ft 414 kts 175°
2026-04-27 19:07 8.23069 -79.44371 25914 ft 416 kts 175°
2026-04-27 19:08 8.20179 -79.44137 26450 ft 416 kts 175°
2026-04-27 19:08 8.16345 -79.43827 27098 ft 418 kts 175°
2026-04-27 19:08 8.14378 -79.43668 27414 ft 420 kts 175°
2026-04-27 19:08 8.10513 -79.43359 28015 ft 422 kts 175°
2026-04-27 19:09 8.08535 -79.43202 28321 ft 423 kts 175°
2026-04-27 19:09 8.05597 -79.42971 28751 ft 424 kts 175°
2026-04-27 19:09 8.02686 -79.42743 29165 ft 425 kts 175°
2026-04-27 19:09 7.99729 -79.42513 29571 ft 427 kts 175°
2026-04-27 19:10 7.96760 -79.42282 29938 ft 429 kts 175°
2026-04-27 19:10 7.93774 -79.42055 30289 ft 431 kts 175°
2026-04-27 19:10 7.90770 -79.41828 30647 ft 433 kts 175°
2026-04-27 19:10 7.88733 -79.41673 30849 ft 436 kts 175°
2026-04-27 19:11 7.84703 -79.41365 31259 ft 439 kts 176°
2026-04-27 19:11 7.81652 -79.41126 31594 ft 441 kts 176°
2026-04-27 19:11 7.78592 -79.40882 31998 ft 440 kts 176°
2026-04-27 19:11 7.75574 -79.40635 32431 ft 439 kts 176°
2026-04-27 19:12 7.72525 -79.40379 32896 ft 438 kts 176°
2026-04-27 19:12 7.69494 -79.40117 33358 ft 437 kts 176°
2026-04-27 19:12 7.66470 -79.39848 33802 ft 436 kts 176°
2026-04-27 19:12 7.63452 -79.39571 34213 ft 436 kts 176°
2026-04-27 19:13 7.60432 -79.39286 34610 ft 435 kts 176°
2026-04-27 19:13 7.57413 -79.38994 35017 ft 435 kts 176°
2026-04-27 19:13 7.54396 -79.38697 35353 ft 435 kts 175°
2026-04-27 19:13 7.51376 -79.38396 35641 ft 437 kts 176°
2026-04-27 19:14 7.48352 -79.38091 36004 ft 436 kts 175°
2026-04-27 19:14 7.45369 -79.37785 36384 ft 435 kts 176°
2026-04-27 19:14 7.42360 -79.37472 36693 ft 435 kts 176°
2026-04-27 19:14 7.39354 -79.37153 37117 ft 431 kts 176°
2026-04-27 19:15 7.36390 -79.36832 37643 ft 425 kts 176°
2026-04-27 19:15 7.33456 -79.36508 37975 ft 424 kts 176°
2026-04-27 19:15 7.30519 -79.36178 38188 ft 426 kts 176°
2026-04-27 19:15 7.27572 -79.35844 38368 ft 427 kts 175°
2026-04-27 19:16 7.24611 -79.35506 38552 ft 429 kts 175°
2026-04-27 19:16 7.22643 -79.35280 38710 ft 429 kts 176°
2026-04-27 19:16 7.18668 -79.34818 38893 ft 433 kts 176°
2026-04-27 19:17 7.12676 -79.34106 38891 ft 433 kts 175°
2026-04-27 19:17 7.06741 -79.33391 38881 ft 426 kts 175°
2026-04-27 19:18 7.00866 -79.32681 38892 ft 424 kts 175°
2026-04-27 19:18 6.95011 -79.31974 38888 ft 424 kts 175°
2026-04-27 19:19 6.89201 -79.31271 38891 ft 423 kts 175°
2026-04-27 19:19 6.83352 -79.30563 38891 ft 423 kts 175°
2026-04-27 19:20 6.77495 -79.29857 38890 ft 424 kts 175°
2026-04-27 19:20 6.71623 -79.29150 38891 ft 425 kts 175°
2026-04-27 19:21 6.65739 -79.28444 38891 ft 427 kts 175°
2026-04-27 19:21 6.59830 -79.27736 38890 ft 428 kts 175°
2026-04-27 19:22 6.53910 -79.27025 38890 ft 429 kts 175°
2026-04-27 19:22 6.48017 -79.26319 38890 ft 429 kts 175°
2026-04-27 19:23 6.42081 -79.25609 38880 ft 430 kts 175°
2026-04-27 19:23 6.36139 -79.24901 38877 ft 430 kts 176°
2026-04-27 19:24 6.30199 -79.24194 38879 ft 429 kts 175°
2026-04-27 19:24 6.24269 -79.23489 38881 ft 429 kts 175°
2026-04-27 19:25 6.18347 -79.22784 38876 ft 428 kts 175°
2026-04-27 19:25 6.12430 -79.22077 38879 ft 428 kts 175°
2026-04-27 19:26 6.06519 -79.21368 38876 ft 428 kts 175°
2026-04-27 19:26 6.00648 -79.20667 38880 ft 427 kts 175°
2026-04-27 19:27 5.94737 -79.19963 38879 ft 427 kts 175°
2026-04-27 19:27 5.88822 -79.19265 38878 ft 427 kts 175°
2026-04-27 19:28 5.82911 -79.18571 38881 ft 427 kts 175°
2026-04-27 19:28 5.77002 -79.17879 38879 ft 427 kts 175°
2026-04-27 19:29 5.71110 -79.17188 38882 ft 427 kts 175°
2026-04-27 19:29 5.65202 -79.16495 38870 ft 427 kts 175°
2026-04-27 19:30 5.59334 -79.15810 38872 ft 427 kts 176°
2026-04-27 19:30 5.53423 -79.15120 38870 ft 428 kts 175°
2026-04-27 19:31 5.47511 -79.14431 38871 ft 428 kts 176°
2026-04-27 19:31 5.41598 -79.13742 38870 ft 428 kts 176°
2026-04-27 19:32 5.35680 -79.13053 38871 ft 428 kts 176°
2026-04-27 19:32 5.29756 -79.12363 38870 ft 428 kts 176°
2026-04-27 19:33 5.23834 -79.11674 38871 ft 428 kts 176°
2026-04-27 19:33 5.17948 -79.10987 38871 ft 429 kts 176°
2026-04-27 19:34 5.12012 -79.10300 38869 ft 429 kts 175°
2026-04-27 19:34 5.06078 -79.09620 38869 ft 429 kts 176°
2026-04-27 19:35 5.00140 -79.08942 38868 ft 430 kts 176°
2026-04-27 19:35 4.94205 -79.08267 38871 ft 429 kts 176°
2026-04-27 19:36 4.88263 -79.07590 38872 ft 429 kts 175°
2026-04-27 19:36 4.82331 -79.06911 38867 ft 429 kts 176°
2026-04-27 19:37 4.76391 -79.06231 38871 ft 429 kts 176°
2026-04-27 19:37 4.70486 -79.05556 38869 ft 429 kts 176°
2026-04-27 19:38 4.64550 -79.04877 38871 ft 429 kts 176°
2026-04-27 19:38 4.58620 -79.04199 38867 ft 429 kts 176°
2026-04-27 19:39 4.52692 -79.03528 38872 ft 429 kts 176°
2026-04-27 19:39 4.46757 -79.02862 38869 ft 429 kts 176°
2026-04-27 19:40 4.40819 -79.02195 38872 ft 429 kts 176°
2026-04-27 19:40 4.34872 -79.01526 38870 ft 430 kts 176°
2026-04-27 19:41 4.28921 -79.00857 38872 ft 430 kts 176°
2026-04-27 19:41 4.22991 -78.99978 38873 ft 431 kts 173°
2026-04-27 19:42 4.17106 -78.98981 38869 ft 431 kts 173°
2026-04-27 19:42 4.11182 -78.97976 38882 ft 431 kts 173°
2026-04-27 19:43 4.05260 -78.96970 38891 ft 431 kts 173°
2026-04-27 19:43 3.99350 -78.95965 38891 ft 432 kts 173°
2026-04-27 19:44 3.93418 -78.94956 38884 ft 432 kts 172°
2026-04-27 19:44 3.87486 -78.93947 38890 ft 432 kts 172°
2026-04-27 19:45 3.81557 -78.92935 38882 ft 432 kts 172°
2026-04-27 19:45 3.75666 -78.91706 38864 ft 436 kts 161°
2026-04-27 19:46 3.70222 -78.88996 38888 ft 438 kts 153°
2026-04-27 19:46 3.64770 -78.86388 38872 ft 436 kts 162°
2026-04-27 19:47 3.58958 -78.84775 38885 ft 432 kts 171°
2026-04-27 19:47 3.53033 -78.83789 38878 ft 431 kts 174°
2026-04-27 19:48 3.47084 -78.82995 38884 ft 431 kts 175°
2026-04-27 19:48 3.41118 -78.82215 38878 ft 432 kts 174°
2026-04-27 19:49 3.35155 -78.81418 38882 ft 432 kts 174°
2026-04-27 19:49 3.29195 -78.80609 38876 ft 432 kts 174°
2026-04-27 19:50 3.23235 -78.79795 38880 ft 432 kts 174°
2026-04-27 19:50 3.17282 -78.78983 38878 ft 432 kts 174°
2026-04-27 19:51 3.11334 -78.78172 38878 ft 431 kts 174°
2026-04-27 19:51 3.05385 -78.77361 38878 ft 431 kts 174°
2026-04-27 19:52 2.99482 -78.76557 38880 ft 430 kts 174°
2026-04-27 19:52 2.93558 -78.75749 38887 ft 429 kts 174°
2026-04-27 19:53 2.84695 -78.74543 38886 ft 428 kts 174°
2026-04-27 19:53 2.78795 -78.73737 38880 ft 428 kts 174°
2026-04-27 19:54 2.72893 -78.72933 38880 ft 427 kts 174°
2026-04-27 19:54 2.67001 -78.72130 38878 ft 427 kts 174°
2026-04-27 19:55 2.61150 -78.71333 38878 ft 427 kts 174°
2026-04-27 19:55 2.55259 -78.70533 38880 ft 426 kts 174°
2026-04-27 19:56 2.49391 -78.69734 38902 ft 425 kts 174°
2026-04-27 19:56 2.44484 -78.69063 38908 ft 424 kts 174°
2026-04-27 19:57 2.38668 -78.68272 38906 ft 425 kts 174°
2026-04-27 19:57 2.32809 -78.67476 38906 ft 425 kts 174°
2026-04-27 19:58 2.26957 -78.66679 38903 ft 425 kts 174°
2026-04-27 19:58 2.21095 -78.65881 38901 ft 425 kts 174°
2026-04-27 19:59 2.15227 -78.65082 38897 ft 426 kts 174°
2026-04-27 19:59 2.09348 -78.64281 38900 ft 426 kts 174°
2026-04-27 20:00 2.03480 -78.63482 38894 ft 425 kts 174°
2026-04-27 20:00 1.97608 -78.62680 38887 ft 426 kts 174°
2026-04-27 20:01 1.91739 -78.61885 38890 ft 425 kts 174°
2026-04-27 20:01 1.85874 -78.61087 38887 ft 426 kts 174°
2026-04-27 20:02 1.80008 -78.60290 38883 ft 425 kts 174°
2026-04-27 20:02 1.74153 -78.59493 38890 ft 424 kts 174°
2026-04-27 20:03 1.68298 -78.58696 38898 ft 424 kts 174°
2026-04-27 20:03 1.62444 -78.57902 38905 ft 424 kts 174°
2026-04-27 20:04 1.56632 -78.57110 38906 ft 424 kts 174°
2026-04-27 20:04 1.50782 -78.56315 38921 ft 424 kts 174°
2026-04-27 20:05 1.44931 -78.55518 38943 ft 425 kts 174°
2026-04-27 20:05 1.39074 -78.54722 38953 ft 425 kts 174°
2026-04-27 20:06 1.33212 -78.53927 38999 ft 424 kts 173°
2026-04-27 20:06 1.27349 -78.53128 39013 ft 425 kts 173°
2026-04-27 20:07 1.21494 -78.52330 39037 ft 425 kts 173°
2026-04-27 20:07 1.15632 -78.51533 39051 ft 425 kts 173°
2026-04-27 20:08 1.09757 -78.50735 39071 ft 426 kts 173°
2026-04-27 20:08 1.03921 -78.49941 39088 ft 426 kts 173°
2026-04-27 20:09 0.98013 -78.49139 38702 ft 434 kts 173°
2026-04-27 20:09 0.95022 -78.48732 38182 ft 433 kts 173°
2026-04-27 20:09 0.92046 -78.48326 37604 ft 431 kts 173°
2026-04-27 20:10 0.89071 -78.47922 36993 ft 431 kts 173°
2026-04-27 20:10 0.86101 -78.47518 36369 ft 430 kts 173°
2026-04-27 20:10 0.83146 -78.47116 35839 ft 427 kts 172°
2026-04-27 20:10 0.80208 -78.46717 35332 ft 425 kts 172°
2026-04-27 20:11 0.77282 -78.46321 34840 ft 422 kts 172°
2026-04-27 20:11 0.74385 -78.45927 34357 ft 419 kts 172°
2026-04-27 20:11 0.71503 -78.45535 33876 ft 416 kts 172°
2026-04-27 20:11 0.68637 -78.45145 33394 ft 414 kts 172°
2026-04-27 20:12 0.65797 -78.44759 32921 ft 411 kts 172°
2026-04-27 20:12 0.62969 -78.44374 32448 ft 408 kts 172°
2026-04-27 20:12 0.60166 -78.43993 31975 ft 405 kts 172°
2026-04-27 20:12 0.57374 -78.43614 31509 ft 403 kts 172°
2026-04-27 20:13 0.54632 -78.43241 31052 ft 400 kts 172°
2026-04-27 20:13 0.51880 -78.42867 30582 ft 398 kts 172°
2026-04-27 20:13 0.49145 -78.42495 30129 ft 395 kts 172°
2026-04-27 20:13 0.46425 -78.42126 29654 ft 392 kts 172°
2026-04-27 20:14 0.43730 -78.41760 29162 ft 389 kts 172°
2026-04-27 20:14 0.41053 -78.41396 28671 ft 386 kts 172°
2026-04-27 20:14 0.38405 -78.41036 28182 ft 384 kts 172°
2026-04-27 20:14 0.35758 -78.40676 27689 ft 381 kts 172°
2026-04-27 20:15 0.33137 -78.40320 27203 ft 379 kts 172°
2026-04-27 20:15 0.30534 -78.39966 26726 ft 377 kts 172°
2026-04-27 20:15 0.27942 -78.39613 26241 ft 375 kts 171°
2026-04-27 20:15 0.25370 -78.39263 25753 ft 373 kts 171°
2026-04-27 20:16 0.22833 -78.38918 25269 ft 370 kts 171°
2026-04-27 20:16 0.20286 -78.38573 24790 ft 368 kts 171°
2026-04-27 20:16 0.17757 -78.38229 24303 ft 366 kts 171°
2026-04-27 20:16 0.15237 -78.37887 23822 ft 364 kts 171°
2026-04-27 20:17 0.12734 -78.37546 23341 ft 362 kts 171°
2026-04-27 20:17 0.10241 -78.37207 22852 ft 360 kts 171°
2026-04-27 20:17 0.07766 -78.36870 22366 ft 359 kts 171°
2026-04-27 20:17 0.06099 -78.36644 22037 ft 358 kts 171°
2026-04-27 20:18 0.02842 -78.36243 21377 ft 356 kts 177°
2026-04-27 20:18 0.00390 -78.36577 20735 ft 361 kts 198°
2026-04-27 20:18 -0.01932 -78.37563 20152 ft 362 kts 203°
2026-04-27 20:18 -0.04218 -78.38620 19600 ft 361 kts 203°
2026-04-27 20:19 -0.06476 -78.39658 19132 ft 353 kts 203°
2026-04-27 20:19 -0.08630 -78.40683 18996 ft 332 kts 204°
2026-04-27 20:19 -0.10659 -78.41661 18837 ft 316 kts 204°
2026-04-27 20:19 -0.12586 -78.42589 18702 ft 300 kts 203°
2026-04-27 20:20 -0.14422 -78.43468 18602 ft 286 kts 203°
2026-04-27 20:20 -0.16180 -78.44308 18478 ft 275 kts 203°
2026-04-27 20:20 -0.17874 -78.45115 18378 ft 265 kts 202°
2026-04-27 20:20 -0.19526 -78.45901 18274 ft 262 kts 202°
2026-04-27 20:21 -0.21167 -78.46681 18112 ft 262 kts 202°
2026-04-27 20:21 -0.22834 -78.47474 17826 ft 268 kts 202°
2026-04-27 20:21 -0.24518 -78.48271 17516 ft 266 kts 201°
2026-04-27 20:21 -0.26240 -78.48919 17197 ft 264 kts 194°
2026-04-27 20:22 -0.28023 -78.49324 16878 ft 262 kts 185°
2026-04-27 20:22 -0.29832 -78.49474 16562 ft 261 kts 178°
2026-04-27 20:22 -0.31640 -78.49391 16251 ft 259 kts 171°
2026-04-27 20:22 -0.33405 -78.49098 15962 ft 253 kts 165°
2026-04-27 20:23 -0.35059 -78.48626 15639 ft 242 kts 158°
2026-04-27 20:23 -0.36575 -78.47998 15334 ft 230 kts 152°
2026-04-27 20:23 -0.37943 -78.47247 15055 ft 219 kts 146°
2026-04-27 20:23 -0.39171 -78.46405 14790 ft 211 kts 141°
2026-04-27 20:24 -0.40279 -78.45484 14560 ft 201 kts 136°
2026-04-27 20:24 -0.41245 -78.44531 14324 ft 189 kts 131°
2026-04-27 20:24 -0.42066 -78.43553 14068 ft 180 kts 119°
2026-04-27 20:24 -0.42430 -78.42398 13920 ft 175 kts 93°
2026-04-27 20:25 -0.42254 -78.41166 13730 ft 185 kts 70°
2026-04-27 20:25 -0.41541 -78.40077 13485 ft 192 kts 45°
2026-04-27 20:25 -0.40426 -78.39324 13125 ft 198 kts 28°
2026-04-27 20:25 -0.39207 -78.38764 12854 ft 193 kts 26°
2026-04-27 20:26 -0.37987 -78.38224 12607 ft 190 kts 26°
2026-04-27 20:26 -0.36801 -78.37698 12353 ft 183 kts 26°
2026-04-27 20:26 -0.35645 -78.37183 12135 ft 180 kts 26°
2026-04-27 20:26 -0.34497 -78.36665 11951 ft 180 kts 26°
2026-04-27 20:27 -0.33382 -78.36158 11702 ft 173 kts 26°
2026-04-27 20:27 -0.32289 -78.35657 11508 ft 173 kts 26°
2026-04-27 20:27 -0.31190 -78.35139 11312 ft 177 kts 28°
2026-04-27 20:27 -0.30002 -78.34896 11207 ft 176 kts 358°
2026-04-27 20:28 -0.28801 -78.34867 10930 ft 169 kts
2026-04-27 20:28 -0.27668 -78.34824 10694 ft 158 kts
2026-04-27 20:28 -0.26590 -78.34839 10483 ft 154 kts 359°
2026-04-27 20:28 -0.25888 -78.34864 10337 ft 152 kts 359°
2026-04-27 20:29 -0.24476 -78.34923 10063 ft 152 kts 358°
2026-04-27 20:29 -0.23419 -78.34969 9839 ft 152 kts 357°
2026-04-27 20:29 -0.22374 -78.35014 9613 ft 150 kts 358°
2026-04-27 20:29 -0.21331 -78.35058 9418 ft 150 kts 358°
2026-04-27 20:30 -0.20293 -78.35103 9208 ft 149 kts 358°
2026-04-27 20:30 -0.19259 -78.35146 9059 ft 148 kts 356°
2026-04-27 20:30 -0.18234 -78.35195 8868 ft 146 kts 358°
2026-04-27 20:30 -0.17225 -78.35228 8593 ft 144 kts 358°
2026-04-27 20:31 -0.16218 -78.35275 8360 ft 145 kts 357°
2026-04-27 20:31 -0.15217 -78.35330 8170 ft 142 kts 358°
2026-04-27 20:31 -0.14227 -78.35365 7940 ft 143 kts 357°
2026-04-27 20:31 -0.13293 -78.35406 7884 ft 120 kts 358°
2026-04-27 20:32 -0.12608 -78.35435 7856 ft 77 kts 358°
2026-04-27 20:32 -0.12210 -78.35449 7833 ft 47 kts 358°
2026-04-27 20:32 -0.11892 -78.35467 7827 ft 44 kts 353°
2026-04-27 20:32 -0.11677 -78.35545 7820 ft 21 kts 328°
2026-04-27 20:33 -0.11616 -78.35595 7821 ft 0 kts 291°
2026-04-27 20:33 -0.11615 -78.35599 7821 ft 1 kts 287°
2026-04-27 20:33 -0.11614 -78.35604 7821 ft 1 kts 283°
2026-04-27 20:33 -0.11614 -78.35617 7820 ft 3 kts 259°
2026-04-27 20:34 -0.11632 -78.35636 7818 ft 4 kts 213°
2026-04-27 20:34 -0.11660 -78.35643 7821 ft 4 kts 182°
2026-04-27 20:34 -0.11690 -78.35642 7822 ft 4 kts 177°
2026-04-27 20:34 -0.11721 -78.35641 7823 ft 4 kts 178°
2026-04-27 20:35 -0.11755 -78.35640 7824 ft 5 kts 178°
2026-04-27 20:35 -0.11796 -78.35639 7822 ft 7 kts 178°
2026-04-27 20:35 -0.11847 -78.35636 7822 ft 8 kts 177°
2026-04-27 20:35 -0.11914 -78.35634 7828 ft 10 kts 178°
2026-04-27 20:36 -0.11984 -78.35631 7830 ft 10 kts 176°
2026-04-27 20:36 -0.12053 -78.35629 7832 ft 10 kts 178°
2026-04-27 20:36 -0.12119 -78.35627 7835 ft 9 kts 178°
2026-04-27 20:36 -0.12184 -78.35624 7838 ft 9 kts 178°
2026-04-27 20:37 -0.12247 -78.35621 7840 ft 9 kts 177°
2026-04-27 20:37 -0.12304 -78.35618 7841 ft 7 kts 175°
2026-04-27 20:37 -0.12348 -78.35636 7841 ft 7 kts 236°
2026-04-27 20:37 -0.12359 -78.35687 7840 ft 8 kts 264°
2026-04-27 20:38 -0.12361 -78.35738 7840 ft 7 kts 268°
2026-04-27 20:38 -0.12363 -78.35788 7840 ft 7 kts 265°
2026-04-27 20:38 -0.12382 -78.35831 7840 ft 7 kts 216°
2026-04-27 20:38 -0.12428 -78.35842 7840 ft 7 kts 188°
2026-04-27 20:39 -0.12473 -78.35848 7840 ft 5 kts 193°
2026-04-27 20:39 -0.12487 -78.35868 7840 ft 3 kts 265°
2026-04-27 20:39 -0.12489 -78.35893 7840 ft 4 kts 266°
2026-04-27 20:39 -0.12490 -78.35916 7834 ft 3 kts 266°
2026-04-27 20:40 -0.12491 -78.35928 7840 ft 0 kts 266°